Hourly Data Report for August 25, 2015

All times are specified in Local Standard Time (LST). Add 1 hour to adjust for Daylight Saving Time where and when it is observed.

TORONTO INTL A
ONTARIO

43°40'36.000" N
79°37'50.000" W
173.40 m
6158731
71624
YYZ

Download Data

Hourly Data (August 2015)
Hourly Data Report for August 25, 2015
Temp Definition
°C
Dew Point Temp Definition
°C
Rel Hum Definition
%
Wind Dir Definition
10's deg

Wind Spd Definition
km/h
Visibility Definition
km
Stn Press Definition
kPa
Hmdx Definition


Wind Chill Definition


Weather Definition


TIME
00:00 Legend Double Dagger 16.1 12.3 78 29 5 24.1 98.98     LegendNANA
01:00 Legend Double Dagger 16.3 12.3 77 24 11 24.1 98.96     LegendNANA
02:00 Legend Double Dagger 15.6 11.6 77 24 13 24.1 98.97     LegendNANA
03:00 Legend Double Dagger 15.2 11.0 76 24 11 24.1 98.97     LegendNANA
04:00 Legend Double Dagger 14.9 11.0 77 25 13 24.1 98.98     Mostly Cloudy
05:00 Legend Double Dagger 14.4 10.7 78 25 15 24.1 99.01     LegendNANA
06:00 Legend Double Dagger 14.3 10.0 75 25 17 24.1 99.04     LegendNANA
07:00 Legend Double Dagger 14.5 10.0 74 24 17 24.1 99.10     Cloudy
08:00 Legend Double Dagger 15.3 10.1 71 27 20 24.1 99.14     LegendNANA
09:00 Legend Double Dagger 16.6 10.7 68 26 13 24.1 99.15     LegendNANA
10:00 Legend Double Dagger 17.8 10.0 60 26 13 24.1 99.17     Cloudy
11:00 Legend Double Dagger 17.9 9.4 57 28 23 24.1 99.17     LegendNANA
12:00 Legend Double Dagger 18.6 9.5 55 27 18 24.1 99.16     LegendNANA
13:00 Legend Double Dagger 19.8 9.5 51 24 18 24.1 99.13     Mostly Cloudy
14:00 Legend Double Dagger 19.3 10.2 55 23 18 24.1 99.15     LegendNANA
15:00 Legend Double Dagger 19.5 10.3 55 26 25 24.1 99.16     LegendNANA
16:00 Legend Double Dagger 18.8 11.0 60 25 24 24.1 99.17     Mostly Cloudy
17:00 Legend Double Dagger 18.6 10.8 60 25 25 24.1 99.23     LegendNANA
18:00 Legend Double Dagger 17.7 10.9 64 28 18 24.1 99.24     LegendNANA
19:00 Legend Double Dagger 17.2 10.6 65 28 13 24.1 99.26     Mostly Cloudy
20:00 Legend Double Dagger 17.0 11.3 69 25 13 24.1 99.32     LegendNANA
21:00 Legend Double Dagger 16.4 10.6 68 28 15 24.1 99.37     LegendNANA
22:00 Legend Double Dagger 16.0 10.6 70 27 14 24.1 99.39     Mostly Cloudy
23:00 Legend Double Dagger 15.7 10.7 72 28 10 24.1 99.38     LegendNANA

Notes on Data Quality.

Legend

  • E = Estimated
  • M = Missing
  • NA = Not Available
  • ‡ = Partner data that is not subject to review by the National Climate Archives
Date modified: